owner,sensor,date,latitude,longitude,vertical_datum,sea_water_temperature,qcFlag
Shell,ioos:station:wmo:42851:1,2021-06-01T00:05:00Z,28.1262,-89.2004,10.0,26.4,11111222
Shell,ioos:station:wmo:42851:1,2021-06-01T00:15:00Z,28.1262,-89.2004,10.0,26.3,11111222
Shell,ioos:station:wmo:42851:1,2021-06-01T00:25:00Z,28.1262,-89.2004,10.0,26.3,11111222
Shell,ioos:station:wmo:42851:1,2021-06-01T00:35:00Z,28.1262,-89.2004,10.0,26.3,11111222
Shell,ioos:station:wmo:42851:1,2021-06-01T00:45:00Z,28.1262,-89.2004,10.0,26.3,11111222
Shell,ioos:station:wmo:42851:1,2021-06-01T00:55:00Z,28.1262,-89.2004,10.0,26.2,11111222
Shell,ioos:station:wmo:42851:1,2021-06-01T01:05:00Z,28.1262,-89.2004,10.0,26.2,11111222
Shell,ioos:station:wmo:42851:1,2021-06-01T01:15:00Z,28.1262,-89.2004,10.0,26.1,11111222
Shell,ioos:station:wmo:42851:1,2021-06-01T01:25:00Z,28.1262,-89.2004,10.0,26.1,11111222
Shell,ioos:station:wmo:42851:1,2021-06-01T01:35:00Z,28.1262,-89.2004,10.0,26.1,11111222
Shell,ioos:station:wmo:42851:1,2021-06-01T01:45:00Z,28.1262,-89.2004,10.0,26.1,11111222
Shell,ioos:station:wmo:42851:1,2021-06-01T01:55:00Z,28.1262,-89.2004,10.0,26.1,11111222
Shell,ioos:station:wmo:42851:1,2021-06-01T02:05:00Z,28.1262,-89.2004,10.0,26.1,11111222
Shell,ioos:station:wmo:42851:1,2021-06-01T02:15:00Z,28.1262,-89.2004,10.0,26.1,11111222
Shell,ioos:station:wmo:42851:1,2021-06-01T02:25:00Z,28.1262,-89.2004,10.0,26.1,11111222
Shell,ioos:station:wmo:42851:1,2021-06-01T02:35:00Z,28.1262,-89.2004,10.0,26.1,11111222
Shell,ioos:station:wmo:42851:1,2021-06-01T02:45:00Z,28.1262,-89.2004,10.0,26.1,11111222
Shell,ioos:station:wmo:42851:1,2021-06-01T02:55:00Z,28.1262,-89.2004,10.0,26.1,11111222
Shell,ioos:station:wmo:42851:1,2021-06-01T03:05:00Z,28.1262,-89.2004,10.0,26.1,11111222
Shell,ioos:station:wmo:42851:1,2021-06-01T03:15:00Z,28.1262,-89.2004,10.0,26.1,11111222
Shell,ioos:station:wmo:42851:1,2021-06-01T03:25:00Z,28.1262,-89.2004,10.0,26.1,11111222
Shell,ioos:station:wmo:42851:1,2021-06-01T03:35:00Z,28.1262,-89.2004,10.0,26.1,11111222
Shell,ioos:station:wmo:42851:1,2021-06-01T03:45:00Z,28.1262,-89.2004,10.0,26.1,11111222
Shell,ioos:station:wmo:42851:1,2021-06-01T03:55:00Z,28.1262,-89.2004,10.0,26.0,11111222
Shell,ioos:station:wmo:42851:1,2021-06-01T04:05:00Z,28.1262,-89.2004,10.0,26.0,11111222
Shell,ioos:station:wmo:42851:1,2021-06-01T04:15:00Z,28.1262,-89.2004,10.0,26.0,11111222
Shell,ioos:station:wmo:42851:1,2021-06-01T04:25:00Z,28.1262,-89.2004,10.0,26.0,11111222
Shell,ioos:station:wmo:42851:1,2021-06-01T04:35:00Z,28.1262,-89.2004,10.0,26.0,11111222
Shell,ioos:station:wmo:42851:1,2021-06-01T04:45:00Z,28.1262,-89.2004,10.0,26.0,11111222
Shell,ioos:station:wmo:42851:1,2021-06-01T04:55:00Z,28.1262,-89.2004,10.0,26.0,11111222
Shell,ioos:station:wmo:42851:1,2021-06-01T05:05:00Z,28.1262,-89.2004,10.0,26.1,11111222
Shell,ioos:station:wmo:42851:1,2021-06-01T05:15:00Z,28.1262,-89.2004,10.0,26.1,11111222
Shell,ioos:station:wmo:42851:1,2021-06-01T05:25:00Z,28.1262,-89.2004,10.0,26.1,11111222
Shell,ioos:station:wmo:42851:1,2021-06-01T05:35:00Z,28.1262,-89.2004,10.0,26.1,11111222
Shell,ioos:station:wmo:42851:1,2021-06-01T05:45:00Z,28.1262,-89.2004,10.0,26.1,11111222
Shell,ioos:station:wmo:42851:1,2021-06-01T05:55:00Z,28.1262,-89.2004,10.0,26.1,11111222
Shell,ioos:station:wmo:42851:1,2021-06-01T06:05:00Z,28.1262,-89.2004,10.0,26.1,11111222
Shell,ioos:station:wmo:42851:1,2021-06-01T06:15:00Z,28.1262,-89.2004,10.0,26.1,11111222
Shell,ioos:station:wmo:42851:1,2021-06-01T06:25:00Z,28.1262,-89.2004,10.0,26.1,11111222
Shell,ioos:station:wmo:42851:1,2021-06-01T06:35:00Z,28.1262,-89.2004,10.0,26.1,11111222
Shell,ioos:station:wmo:42851:1,2021-06-01T06:45:00Z,28.1262,-89.2004,10.0,26.1,11111222
Shell,ioos:station:wmo:42851:1,2021-06-01T06:55:00Z,28.1262,-89.2004,10.0,26.1,11111222
Shell,ioos:station:wmo:42851:1,2021-06-01T07:05:00Z,28.1262,-89.2004,10.0,26.1,11111222
Shell,ioos:station:wmo:42851:1,2021-06-20T20:11:00Z,27.3769,-92.4592,10.0,29.5,11111222
Shell,ioos:station:wmo:42851:1,2021-06-20T20:22:00Z,27.3769,-92.4592,10.0,29.2,11111222
Shell,ioos:station:wmo:42851:1,2021-06-20T20:31:00Z,27.3769,-92.4592,10.0,29.1,11111222
Shell,ioos:station:wmo:42851:1,2021-06-20T20:42:00Z,27.3769,-92.4592,10.0,29.0,11111222
Shell,ioos:station:wmo:42851:1,2021-06-20T20:52:00Z,27.3769,-92.4592,10.0,28.9,11111222
Shell,ioos:station:wmo:42851:1,2021-06-20T21:02:00Z,27.3769,-92.4592,10.0,28.9,11111222
Shell,ioos:station:wmo:42851:1,2021-06-20T21:12:00Z,27.3769,-92.4592,10.0,28.8,11111222
Shell,ioos:station:wmo:42851:1,2021-06-20T21:22:00Z,27.3769,-92.4592,10.0,28.8,11111222
Shell,ioos:station:wmo:42851:1,2021-06-20T21:32:00Z,27.3769,-92.4592,10.0,28.8,11111222
Shell,ioos:station:wmo:42851:1,2021-06-20T21:41:00Z,27.3769,-92.4592,10.0,28.8,11111222
Shell,ioos:station:wmo:42851:1,2021-06-20T21:52:00Z,27.3769,-92.4592,10.0,28.8,11111222
Shell,ioos:station:wmo:42851:1,2021-06-20T22:01:00Z,27.3769,-92.4592,10.0,28.8,11111222
Shell,ioos:station:wmo:42851:1,2021-06-20T22:12:00Z,27.3769,-92.4594,10.0,28.7,11111222
Shell,ioos:station:wmo:42851:1,2021-06-20T22:22:00Z,27.3769,-92.4594,10.0,28.7,11111222
Shell,ioos:station:wmo:42851:1,2021-06-20T22:32:00Z,27.3769,-92.4594,10.0,28.7,11111222
Shell,ioos:station:wmo:42851:1,2021-06-20T22:42:00Z,27.3769,-92.4594,10.0,28.7,11111222
Shell,ioos:station:wmo:42851:1,2021-06-20T22:52:00Z,27.3769,-92.4594,10.0,28.7,11111222
Shell,ioos:station:wmo:42851:1,2021-06-20T23:02:00Z,27.3769,-92.4594,10.0,28.7,11111222
Shell,ioos:station:wmo:42851:1,2021-06-20T23:12:00Z,27.3769,-92.4594,10.0,28.7,11111222
Shell,ioos:station:wmo:42851:1,2021-06-20T23:22:00Z,27.3769,-92.4594,10.0,28.7,11111222
Shell,ioos:station:wmo:42851:1,2021-06-20T23:32:00Z,27.3769,-92.4594,10.0,28.7,11111222
Shell,ioos:station:wmo:42851:1,2021-06-20T23:42:00Z,27.3769,-92.4594,10.0,28.7,11111222
Shell,ioos:station:wmo:42851:1,2021-06-20T23:52:00Z,27.3769,-92.4594,10.0,28.7,11111222
Shell,ioos:station:wmo:42851:1,2021-06-21T00:02:00Z,27.3769,-92.4594,10.0,28.7,11111222
Shell,ioos:station:wmo:42851:1,2021-06-21T04:26:00Z,27.3767,-92.4596,10.0,28.6,11111222
Shell,ioos:station:wmo:42851:1,2021-06-21T04:36:00Z,27.3767,-92.4596,10.0,28.6,11111222
Shell,ioos:station:wmo:42851:1,2021-06-21T04:46:00Z,27.3767,-92.4596,10.0,28.6,11111222
Shell,ioos:station:wmo:42851:1,2021-06-21T04:56:00Z,27.3767,-92.4596,10.0,28.6,11111222
Shell,ioos:station:wmo:42851:1,2021-06-21T05:06:00Z,27.3767,-92.4596,10.0,28.6,11111222
Shell,ioos:station:wmo:42851:1,2021-06-21T05:16:00Z,27.3767,-92.4596,10.0,28.6,11111222
Shell,ioos:station:wmo:42851:1,2021-06-21T05:26:00Z,27.3767,-92.4596,10.0,28.7,11111222
Shell,ioos:station:wmo:42851:1,2021-06-21T05:36:00Z,27.3767,-92.4596,10.0,28.7,11111222
Shell,ioos:station:wmo:42851:1,2021-06-21T05:46:00Z,27.3767,-92.4596,10.0,28.6,11111222
Shell,ioos:station:wmo:42851:1,2021-06-21T05:56:00Z,27.3767,-92.4596,10.0,28.6,11111222
Shell,ioos:station:wmo:42851:1,2021-06-21T06:06:00Z,27.3767,-92.4596,10.0,28.6,11111222
Shell,ioos:station:wmo:42851:1,2021-06-21T06:16:00Z,27.3767,-92.4596,10.0,28.6,11111222
Shell,ioos:station:wmo:42851:1,2021-06-21T06:26:00Z,27.3767,-92.4596,10.0,28.6,11111222
Shell,ioos:station:wmo:42851:1,2021-06-21T06:36:00Z,27.3767,-92.4596,10.0,28.6,11111222
Shell,ioos:station:wmo:42851:1,2021-06-21T06:46:00Z,27.3767,-92.4596,10.0,28.6,11111222
Shell,ioos:station:wmo:42851:1,2021-06-21T06:56:00Z,27.3767,-92.4596,10.0,28.6,11111222
Shell,ioos:station:wmo:42851:1,2021-06-21T07:06:00Z,27.3767,-92.4596,10.0,28.6,11111222
Shell,ioos:station:wmo:42851:1,2021-06-21T07:16:00Z,27.3767,-92.4596,10.0,28.6,11111222
Shell,ioos:station:wmo:42851:1,2021-06-21T07:26:00Z,27.3767,-92.4596,10.0,28.6,11111222
Shell,ioos:station:wmo:42851:1,2021-06-21T07:36:00Z,27.3767,-92.4596,10.0,28.6,11111222
Shell,ioos:station:wmo:42851:1,2021-06-21T07:46:00Z,27.3767,-92.4596,10.0,28.6,11111222
Shell,ioos:station:wmo:42851:1,2021-06-21T07:56:00Z,27.3767,-92.4596,10.0,28.6,11111222
Shell,ioos:station:wmo:42851:1,2021-06-21T08:06:00Z,27.3767,-92.4596,10.0,28.6,11111222
Shell,ioos:station:wmo:42851:1,2021-06-21T08:16:00Z,27.3767,-92.4596,10.0,28.6,11111222
Shell,ioos:station:wmo:42851:1,2021-06-21T08:26:00Z,27.3767,-92.4596,10.0,28.6,11111222
Shell,ioos:station:wmo:42851:1,2021-06-21T08:36:00Z,27.3767,-92.4596,10.0,28.6,11111222
Shell,ioos:station:wmo:42851:1,2021-06-21T08:46:00Z,27.3767,-92.4596,10.0,28.6,11111222
Shell,ioos:station:wmo:42851:1,2021-06-21T08:56:00Z,27.3767,-92.4596,10.0,28.6,11111222
Shell,ioos:station:wmo:42851:1,2021-06-21T09:06:00Z,27.3767,-92.4596,10.0,28.6,11111222
Shell,ioos:station:wmo:42851:1,2021-06-21T09:16:00Z,27.3767,-92.4596,10.0,28.7,11111222
Shell,ioos:station:wmo:42851:1,2021-06-21T09:26:00Z,27.3767,-92.4596,10.0,28.7,11111222
Shell,ioos:station:wmo:42851:1,2021-06-21T09:36:00Z,27.3767,-92.4596,10.0,28.7,11111222
Shell,ioos:station:wmo:42851:1,2021-06-21T09:46:00Z,27.3768,-92.4595,10.0,28.7,11111222
Shell,ioos:station:wmo:42851:1,2021-06-21T09:56:00Z,27.3768,-92.4595,10.0,28.7,11111222
Shell,ioos:station:wmo:42851:1,2021-06-21T10:06:00Z,27.3768,-92.4595,10.0,28.7,11111222
Shell,ioos:station:wmo:42851:1,2021-06-21T10:16:00Z,27.3768,-92.4595,10.0,28.7,11111222
Shell,ioos:station:wmo:42851:1,2021-06-21T10:26:00Z,27.3768,-92.4595,10.0,28.7,11111222
Shell,ioos:station:wmo:42851:1,2021-06-21T10:36:00Z,27.3768,-92.4595,10.0,28.7,11111222
Shell,ioos:station:wmo:42851:1,2021-06-21T10:46:00Z,27.3768,-92.4595,10.0,28.7,11111222
Shell,ioos:station:wmo:42851:1,2021-06-21T10:56:00Z,27.3768,-92.4595,10.0,28.7,11111222
Shell,ioos:station:wmo:42851:1,2021-06-21T11:06:00Z,27.3768,-92.4595,10.0,28.7,11111222
Shell,ioos:station:wmo:42851:1,2021-06-21T11:16:00Z,27.3768,-92.4595,10.0,28.7,11111222
Shell,ioos:station:wmo:42851:1,2021-06-21T11:26:00Z,27.3768,-92.4595,10.0,28.7,11111222
Shell,ioos:station:wmo:42851:1,2021-06-21T11:36:00Z,27.3768,-92.4595,10.0,28.7,11111222
Shell,ioos:station:wmo:42851:1,2021-06-21T11:46:00Z,27.3768,-92.4595,10.0,28.7,11111222
Shell,ioos:station:wmo:42851:1,2021-06-21T11:56:00Z,27.3768,-92.4595,10.0,28.7,11111222
Shell,ioos:station:wmo:42851:1,2021-06-21T12:06:00Z,27.3768,-92.4595,10.0,28.7,11111222
Shell,ioos:station:wmo:42851:1,2021-06-21T12:16:00Z,27.3768,-92.4595,10.0,28.7,11111222
Shell,ioos:station:wmo:42851:1,2021-06-21T12:26:00Z,27.3768,-92.4595,10.0,28.7,11111222
Shell,ioos:station:wmo:42851:1,2021-06-21T12:36:00Z,27.3768,-92.4595,10.0,28.7,11111222
Shell,ioos:station:wmo:42851:1,2021-06-21T12:46:00Z,27.3768,-92.4595,10.0,28.7,11111222
Shell,ioos:station:wmo:42851:1,2021-06-21T12:56:00Z,27.3768,-92.4595,10.0,28.7,11111222
Shell,ioos:station:wmo:42851:1,2021-06-21T13:06:00Z,27.3768,-92.4595,10.0,28.7,11111222
Shell,ioos:station:wmo:42851:1,2021-06-21T13:16:00Z,27.3768,-92.4595,10.0,28.7,11111222
Shell,ioos:station:wmo:42851:1,2021-06-21T13:26:00Z,27.3768,-92.4595,10.0,28.7,11111222
Shell,ioos:station:wmo:42851:1,2021-06-21T13:36:00Z,27.3768,-92.4595,10.0,28.7,11111222
Shell,ioos:station:wmo:42851:1,2021-06-21T13:46:00Z,27.3768,-92.4595,10.0,28.7,11111222
Shell,ioos:station:wmo:42851:1,2021-06-21T13:56:00Z,27.3768,-92.4595,10.0,28.7,11111222
Shell,ioos:station:wmo:42851:1,2021-06-21T14:06:00Z,27.3768,-92.4595,10.0,28.7,11111222
Shell,ioos:station:wmo:42851:1,2021-06-21T14:16:00Z,27.3768,-92.4595,10.0,28.7,11111222
Shell,ioos:station:wmo:42851:1,2021-06-21T14:26:00Z,27.3768,-92.4595,10.0,28.7,11111222
Shell,ioos:station:wmo:42851:1,2021-06-21T14:36:00Z,27.3768,-92.4595,10.0,28.7,11111222
Shell,ioos:station:wmo:42851:1,2021-06-21T14:46:00Z,27.3768,-92.4595,10.0,28.7,11111222
Shell,ioos:station:wmo:42851:1,2021-06-21T14:56:00Z,27.3768,-92.4595,10.0,28.7,11111222
Shell,ioos:station:wmo:42851:1,2021-06-21T15:06:00Z,27.3768,-92.4595,10.0,28.7,11111222
Shell,ioos:station:wmo:42851:1,2021-06-21T15:16:00Z,27.3768,-92.4595,10.0,28.7,11111222
Shell,ioos:station:wmo:42851:1,2021-06-21T15:26:00Z,27.3768,-92.4595,10.0,28.7,11111222
Shell,ioos:station:wmo:42851:1,2021-06-21T15:36:00Z,27.3768,-92.4595,10.0,28.7,11111222
Shell,ioos:station:wmo:42851:1,2021-06-21T15:46:00Z,27.3768,-92.4595,10.0,28.7,11111222
Shell,ioos:station:wmo:42851:1,2021-06-21T15:56:00Z,27.3768,-92.4595,10.0,28.7,11111222
Shell,ioos:station:wmo:42851:1,2021-06-21T16:06:00Z,27.3768,-92.4595,10.0,28.7,11111222
Shell,ioos:station:wmo:42851:1,2021-06-21T16:16:00Z,27.3768,-92.4595,10.0,28.7,11111222
Shell,ioos:station:wmo:42851:1,2021-06-21T16:26:00Z,27.3768,-92.4595,10.0,28.7,11111222
Shell,ioos:station:wmo:42851:1,2021-06-21T16:36:00Z,27.3768,-92.4595,10.0,28.7,11111222
Shell,ioos:station:wmo:42851:1,2021-06-21T16:46:00Z,27.3768,-92.4595,10.0,28.7,11111222
Shell,ioos:station:wmo:42851:1,2021-06-21T16:56:00Z,27.3768,-92.4595,10.0,28.7,11111222
Shell,ioos:station:wmo:42851:1,2021-06-21T17:06:00Z,27.3768,-92.4595,10.0,28.7,11111222
Shell,ioos:station:wmo:42851:1,2021-06-21T17:16:00Z,27.3768,-92.4595,10.0,28.7,11111222
Shell,ioos:station:wmo:42851:1,2021-06-21T17:26:00Z,27.3768,-92.4595,10.0,28.7,11111222
Shell,ioos:station:wmo:42851:1,2021-06-21T17:36:00Z,27.3768,-92.4595,10.0,28.7,11111222
Shell,ioos:station:wmo:42851:1,2021-06-21T17:46:00Z,27.3768,-92.4595,10.0,28.7,11111222
Shell,ioos:station:wmo:42851:1,2021-06-21T17:56:00Z,27.3768,-92.4595,10.0,28.7,11111222
Shell,ioos:station:wmo:42851:1,2021-06-21T18:06:00Z,27.3767,-92.4596,10.0,28.7,11111222
Shell,ioos:station:wmo:42851:1,2021-06-21T18:16:00Z,27.3767,-92.4596,10.0,28.7,11111222
Shell,ioos:station:wmo:42851:1,2021-06-21T18:26:00Z,27.3767,-92.4596,10.0,28.6,11111222
Shell,ioos:station:wmo:42851:1,2021-06-21T18:36:00Z,27.3767,-92.4596,10.0,28.6,11111222
Shell,ioos:station:wmo:42851:1,2021-06-21T18:46:00Z,27.3767,-92.4596,10.0,28.6,11111222
Shell,ioos:station:wmo:42851:1,2021-06-21T18:56:00Z,27.3767,-92.4596,10.0,28.6,11111222
Shell,ioos:station:wmo:42851:1,2021-06-21T19:06:00Z,27.3767,-92.4596,10.0,28.6,11111222
Shell,ioos:station:wmo:42851:1,2021-06-21T19:16:00Z,27.3767,-92.4596,10.0,28.6,11111222
Shell,ioos:station:wmo:42851:1,2021-06-21T19:26:00Z,27.3767,-92.4596,10.0,28.5,11111222
Shell,ioos:station:wmo:42851:1,2021-06-21T19:36:00Z,27.3767,-92.4596,10.0,28.5,11111222
Shell,ioos:station:wmo:42851:1,2021-06-21T19:46:00Z,27.3767,-92.4596,10.0,28.5,11111222
Shell,ioos:station:wmo:42851:1,2021-06-21T19:56:00Z,27.3767,-92.4596,10.0,28.5,11111222
Shell,ioos:station:wmo:42851:1,2021-06-21T20:06:00Z,27.3767,-92.4596,10.0,28.5,11111222
Shell,ioos:station:wmo:42851:1,2021-06-21T20:16:00Z,27.3767,-92.4596,10.0,28.5,11111222
Shell,ioos:station:wmo:42851:1,2021-06-21T21:16:00Z,27.3767,-92.4596,10.0,28.6,11111222
Shell,ioos:station:wmo:42851:1,2021-06-21T21:46:00Z,27.3767,-92.4596,10.0,28.5,11111222
Shell,ioos:station:wmo:42851:1,2021-06-21T21:56:00Z,27.3767,-92.4596,10.0,28.5,11111222
Shell,ioos:station:wmo:42851:1,2021-06-21T22:06:00Z,27.3767,-92.4596,10.0,28.5,11111222
Shell,ioos:station:wmo:42851:1,2021-06-21T22:16:00Z,27.3767,-92.4596,10.0,28.6,11111222
Shell,ioos:station:wmo:42851:1,2021-06-21T22:26:00Z,27.3767,-92.4596,10.0,28.6,11111222
Shell,ioos:station:wmo:42851:1,2021-06-21T22:36:00Z,27.3767,-92.4596,10.0,28.6,11111222
Shell,ioos:station:wmo:42851:1,2021-06-21T22:46:00Z,27.3767,-92.4596,10.0,28.6,11111222
Shell,ioos:station:wmo:42851:1,2021-06-21T22:56:00Z,27.3767,-92.4596,10.0,28.6,11111222
Shell,ioos:station:wmo:42851:1,2021-06-21T23:06:00Z,27.3767,-92.4596,10.0,28.6,11111222
Shell,ioos:station:wmo:42851:1,2021-06-21T23:16:00Z,27.3767,-92.4596,10.0,28.6,11111222
Shell,ioos:station:wmo:42851:1,2021-06-21T23:26:00Z,27.3767,-92.4596,10.0,28.6,11111222
Shell,ioos:station:wmo:42851:1,2021-06-21T23:36:00Z,27.3767,-92.4596,10.0,28.6,11111222
Shell,ioos:station:wmo:42851:1,2021-06-21T23:46:00Z,27.3767,-92.4596,10.0,28.6,11111222
Shell,ioos:station:wmo:42851:1,2021-06-21T23:56:00Z,27.3767,-92.4596,10.0,28.6,11111222
Shell,ioos:station:wmo:42851:1,2021-06-22T00:06:00Z,27.3767,-92.4596,10.0,28.6,11111222
Shell,ioos:station:wmo:42851:1,2021-06-22T00:16:00Z,27.3767,-92.4596,10.0,28.5,11111222
Shell,ioos:station:wmo:42851:1,2021-06-22T00:26:00Z,27.3767,-92.4596,10.0,28.6,11111222
Shell,ioos:station:wmo:42851:1,2021-06-22T00:36:00Z,27.3767,-92.4596,10.0,28.6,11111222
Shell,ioos:station:wmo:42851:1,2021-06-22T00:46:00Z,27.3767,-92.4596,10.0,28.5,11111222
Shell,ioos:station:wmo:42851:1,2021-06-22T00:56:00Z,27.3767,-92.4596,10.0,28.5,11111222
Shell,ioos:station:wmo:42851:1,2021-06-22T01:06:00Z,27.3767,-92.4596,10.0,28.6,11111222
Shell,ioos:station:wmo:42851:1,2021-06-22T01:16:00Z,27.3767,-92.4596,10.0,28.5,11111222
Shell,ioos:station:wmo:42851:1,2021-06-22T01:26:00Z,27.3767,-92.4596,10.0,28.6,11111222
Shell,ioos:station:wmo:42851:1,2021-06-22T01:36:00Z,27.3767,-92.4596,10.0,28.6,11111222
Shell,ioos:station:wmo:42851:1,2021-06-22T01:46:00Z,27.3767,-92.4596,10.0,28.6,11111222
Shell,ioos:station:wmo:42851:1,2021-06-22T01:56:00Z,27.3767,-92.4596,10.0,28.5,11111222
Shell,ioos:station:wmo:42851:1,2021-06-22T02:06:00Z,27.3767,-92.4596,10.0,28.5,11111222
Shell,ioos:station:wmo:42851:1,2021-06-22T02:16:00Z,27.3767,-92.4596,10.0,28.5,11111222
Shell,ioos:station:wmo:42851:1,2021-06-22T02:26:00Z,27.3767,-92.4596,10.0,28.5,11111222
Shell,ioos:station:wmo:42851:1,2021-06-22T02:36:00Z,27.3767,-92.4596,10.0,28.4,11111222
Shell,ioos:station:wmo:42851:1,2021-06-22T02:46:00Z,27.3767,-92.4596,10.0,28.5,11111222
Shell,ioos:station:wmo:42851:1,2021-06-22T02:56:00Z,27.3767,-92.4596,10.0,28.4,11111222
Shell,ioos:station:wmo:42851:1,2021-06-22T03:06:00Z,27.3767,-92.4596,10.0,28.4,11111222
Shell,ioos:station:wmo:42851:1,2021-06-22T03:16:00Z,27.3767,-92.4596,10.0,28.4,11111222
Shell,ioos:station:wmo:42851:1,2021-06-22T03:26:00Z,27.3767,-92.4596,10.0,28.4,11111222
Shell,ioos:station:wmo:42851:1,2021-06-22T03:36:00Z,27.3767,-92.4596,10.0,28.4,11111222
Shell,ioos:station:wmo:42851:1,2021-06-22T03:46:00Z,27.3766,-92.4597,10.0,28.3,11111222
Shell,ioos:station:wmo:42851:1,2021-06-22T03:56:00Z,27.3766,-92.4597,10.0,28.3,11111222
Shell,ioos:station:wmo:42851:1,2021-06-22T04:06:00Z,27.3766,-92.4597,10.0,28.4,11111222
Shell,ioos:station:wmo:42851:1,2021-06-22T04:16:00Z,27.3766,-92.4597,10.0,28.5,11111222
Shell,ioos:station:wmo:42851:1,2021-06-22T04:26:00Z,27.3766,-92.4597,10.0,28.5,11111222
Shell,ioos:station:wmo:42851:1,2021-06-22T04:36:00Z,27.3766,-92.4597,10.0,28.5,11111222
Shell,ioos:station:wmo:42851:1,2021-06-22T04:46:00Z,27.3766,-92.4597,10.0,28.5,11111222
Shell,ioos:station:wmo:42851:1,2021-06-22T04:56:00Z,27.3766,-92.4597,10.0,28.5,11111222
Shell,ioos:station:wmo:42851:1,2021-06-22T05:06:00Z,27.3766,-92.4597,10.0,28.5,11111222
Shell,ioos:station:wmo:42851:1,2021-06-22T05:16:00Z,27.3766,-92.4597,10.0,28.5,11111222
Shell,ioos:station:wmo:42851:1,2021-06-22T05:26:00Z,27.3766,-92.4597,10.0,28.5,11111222
Shell,ioos:station:wmo:42851:1,2021-06-22T05:36:00Z,27.3766,-92.4597,10.0,28.5,11111222
Shell,ioos:station:wmo:42851:1,2021-06-22T05:46:00Z,27.3766,-92.4597,10.0,28.6,11111222
Shell,ioos:station:wmo:42851:1,2021-06-22T05:56:00Z,27.3766,-92.4597,10.0,28.6,11111222
Shell,ioos:station:wmo:42851:1,2021-06-22T06:06:00Z,27.3766,-92.4597,10.0,28.6,11111222
Shell,ioos:station:wmo:42851:1,2021-06-22T06:16:00Z,27.3766,-92.4597,10.0,28.6,11111222
Shell,ioos:station:wmo:42851:1,2021-06-22T06:26:00Z,27.3766,-92.4597,10.0,28.6,11111222
Shell,ioos:station:wmo:42851:1,2021-06-22T06:36:00Z,27.3766,-92.4597,10.0,28.6,11111222
Shell,ioos:station:wmo:42851:1,2021-06-22T06:46:00Z,27.3766,-92.4597,10.0,28.6,11111222
Shell,ioos:station:wmo:42851:1,2021-06-22T06:56:00Z,27.3766,-92.4597,10.0,28.6,11111222
Shell,ioos:station:wmo:42851:1,2021-06-22T07:06:00Z,27.3766,-92.4597,10.0,28.5,11111222
Shell,ioos:station:wmo:42851:1,2021-06-22T07:16:00Z,27.3766,-92.4597,10.0,28.5,11111222
Shell,ioos:station:wmo:42851:1,2021-06-22T07:26:00Z,27.3766,-92.4597,10.0,28.4,11111222
Shell,ioos:station:wmo:42851:1,2021-06-22T07:36:00Z,27.3766,-92.4597,10.0,28.4,11111222
Shell,ioos:station:wmo:42851:1,2021-06-22T07:46:00Z,27.3766,-92.4597,10.0,28.4,11111222
Shell,ioos:station:wmo:42851:1,2021-06-22T07:56:00Z,27.3766,-92.4597,10.0,28.4,11111222
Shell,ioos:station:wmo:42851:1,2021-06-22T08:06:00Z,27.3766,-92.4597,10.0,28.4,11111222
Shell,ioos:station:wmo:42851:1,2021-06-22T08:16:00Z,27.3766,-92.4597,10.0,28.4,11111222
Shell,ioos:station:wmo:42851:1,2021-06-22T08:26:00Z,27.3766,-92.4597,10.0,28.4,11111222
Shell,ioos:station:wmo:42851:1,2021-06-22T08:36:00Z,27.3766,-92.4597,10.0,28.4,11111222
Shell,ioos:station:wmo:42851:1,2021-06-22T08:46:00Z,27.3766,-92.4597,10.0,28.4,11111222
Shell,ioos:station:wmo:42851:1,2021-06-22T08:56:00Z,27.3766,-92.4597,10.0,28.4,11111222
Shell,ioos:station:wmo:42851:1,2021-06-22T09:06:00Z,27.3766,-92.4597,10.0,28.4,11111222
Shell,ioos:station:wmo:42851:1,2021-06-22T09:16:00Z,27.3766,-92.4597,10.0,28.4,11111222
Shell,ioos:station:wmo:42851:1,2021-06-22T09:26:00Z,27.3766,-92.4597,10.0,28.4,11111222
Shell,ioos:station:wmo:42851:1,2021-06-22T09:36:00Z,27.3766,-92.4597,10.0,28.4,11111222
Shell,ioos:station:wmo:42851:1,2021-06-22T09:46:00Z,27.3766,-92.4597,10.0,28.4,11111222
Shell,ioos:station:wmo:42851:1,2021-06-22T09:56:00Z,27.3766,-92.4597,10.0,28.4,11111222
Shell,ioos:station:wmo:42851:1,2021-06-22T10:06:00Z,27.3766,-92.4597,10.0,28.4,11111222
Shell,ioos:station:wmo:42851:1,2021-06-22T10:16:00Z,27.3766,-92.4597,10.0,28.4,11111222
Shell,ioos:station:wmo:42851:1,2021-06-22T10:26:00Z,27.3766,-92.4597,10.0,28.4,11111222
Shell,ioos:station:wmo:42851:1,2021-06-22T10:36:00Z,27.3766,-92.4597,10.0,28.4,11111222
Shell,ioos:station:wmo:42851:1,2021-06-22T10:46:00Z,27.3766,-92.4597,10.0,28.4,11111222
Shell,ioos:station:wmo:42851:1,2021-06-22T10:56:00Z,27.3766,-92.4597,10.0,28.4,11111222
Shell,ioos:station:wmo:42851:1,2021-06-22T11:06:00Z,27.3766,-92.4597,10.0,28.4,11111222
Shell,ioos:station:wmo:42851:1,2021-06-22T11:16:00Z,27.3766,-92.4597,10.0,28.4,11111222
Shell,ioos:station:wmo:42851:1,2021-06-22T11:26:00Z,27.3766,-92.4597,10.0,28.4,11111222
Shell,ioos:station:wmo:42851:1,2021-06-22T11:36:00Z,27.3766,-92.4598,10.0,28.4,11111222
Shell,ioos:station:wmo:42851:1,2021-06-22T11:46:00Z,27.3770,-92.4601,10.0,28.4,11111222
Shell,ioos:station:wmo:42851:1,2021-06-22T11:56:00Z,27.3774,-92.4604,10.0,28.4,11111222
Shell,ioos:station:wmo:42851:1,2021-06-22T12:06:00Z,27.3774,-92.4604,10.0,28.4,11111222
Shell,ioos:station:wmo:42851:1,2021-06-22T12:16:00Z,27.3774,-92.4604,10.0,28.4,11111222
Shell,ioos:station:wmo:42851:1,2021-06-22T12:26:00Z,27.3774,-92.4604,10.0,28.4,11111222
Shell,ioos:station:wmo:42851:1,2021-06-22T12:36:00Z,27.3774,-92.4604,10.0,28.4,11111222
Shell,ioos:station:wmo:42851:1,2021-06-22T12:46:00Z,27.3774,-92.4605,10.0,28.4,11111222
Shell,ioos:station:wmo:42851:1,2021-06-22T12:56:00Z,27.3774,-92.4604,10.0,28.4,11111222
Shell,ioos:station:wmo:42851:1,2021-06-22T13:06:00Z,27.3774,-92.4604,10.0,28.4,11111222
Shell,ioos:station:wmo:42851:1,2021-06-22T13:16:00Z,27.3774,-92.4604,10.0,28.4,11111222
Shell,ioos:station:wmo:42851:1,2021-06-22T13:26:00Z,27.3774,-92.4604,10.0,28.4,11111222
Shell,ioos:station:wmo:42851:1,2021-06-22T13:36:00Z,27.3774,-92.4604,10.0,28.4,11111222
Shell,ioos:station:wmo:42851:1,2021-06-22T13:46:00Z,27.3774,-92.4604,10.0,28.4,11111222
Shell,ioos:station:wmo:42851:1,2021-06-22T13:56:00Z,27.3774,-92.4604,10.0,28.4,11111222
Shell,ioos:station:wmo:42851:1,2021-06-22T14:06:00Z,27.3774,-92.4604,10.0,28.3,11111222
Shell,ioos:station:wmo:42851:1,2021-06-22T14:16:00Z,27.3774,-92.4604,10.0,28.3,11111222
Shell,ioos:station:wmo:42851:1,2021-06-22T14:26:00Z,27.3774,-92.4604,10.0,28.3,11111222
Shell,ioos:station:wmo:42851:1,2021-06-22T14:36:00Z,27.3774,-92.4604,10.0,28.3,11111222
Shell,ioos:station:wmo:42851:1,2021-06-22T14:46:00Z,27.3774,-92.4604,10.0,28.3,11111222
Shell,ioos:station:wmo:42851:1,2021-06-22T14:56:00Z,27.3774,-92.4604,10.0,28.3,11111222